Retour au catalogue

FENGYUN 1C DEB

ActifSSO
NORAD 30462·DEBRIS·🇨🇳 China

Lancé May 10, 1999 depuis Taiyuan Satellite Launch Center

Loading…

Prochains Passages (prochaines 24 heures)

TLE

FraisSource: Space-Track

Époque: Sep 13, 2026, 11:46 UTC

1 30462U 99025AFZ 26256.49049263  .00000397  00000-0  24419-3 0  9990
2 30462  98.8405 243.1022 0138971 198.3961 284.1836 14.06447060  6517

Suivez FENGYUN 1C DEB en temps réel avec AllMySat

Download on the App Store